STARLINK-1585, 46117

Orbit data source: Space-Track

STARLINK-1585, 46117 is a payload satellite owned by SpaceX/Seattle (US) in LEO that was launched on Tue, 18 Aug 2020 UTC via an FALCON 9 launch vehicle from the Air Force Eastern Test Range (AFETR). Payload-class satellites include a variety of spacecraft equipped with specific instruments for various scientific and technological missions. These include communications satellites like Starlink; space stations such as the ISS; scientific satellites like the Hubble; Earth observation satellites from companies like Planet Labs, Umbra, and HawkEye 360; GPS; miniature CubeSats for education and research; and military/defense satellites.

Loading next visibility...
Identifier
46117, 2020-057A
Orbit
LEO
Country
Flag of USUS
Related business
Manufacturer
SpaceX/Seattle
Mission
Partially operational Commercial Communications
Bus & Motor
STARLINK, Unknown motor
Mass
260 kg wet, ~248 kg dry
Launch date (UTC)
2020-08-18 (5 years ago)
Launch vehicle
FALCON 9
Launch site
Air Force Eastern Test Range (AFETR)
Object type
Payload
Rocket body
Debris
Shape & HBR
Box + 1 Pan, 10.1 m
Radar Cross Section
13.562 m², Large (>1 m²)

Expand to show TLE details & history
Last TLE update: 11 hours ago

TLE from 11 hours ago
0 STARLINK-1585
1 46117U 20057A   25311.26886962  .00035252  00000-0  86261-3 0  9995
2 46117  53.0543 121.9232 0001009 104.4257 255.6859 15.40473533287950
Epoch: 2025-11-07T06:27Z
TLE epoch observation values (Epoch: 2025-11-07T06:27:10.335Z)
Latitude
0.00001°
Longitude
-21.58512°
Altitude
445.773 km
Speed
7.646 km/s
True Right ascension
08h 07m 41s
True Declination
0° 00' 00"
Sunlit
Object was in daylight at epoch
Visualization orbit readout
Latitude
Unknown
Longitude
Unknown
Altitude
Unknown
Speed
Unknown
Apparent Right ascension
Unknown
Apparent Declination
Unknown
Sunlit
N/A
Visualization observer readout
Local Sidereal Time
13:30:13
Azimuth
Unknown
Elevation
Unknown
Doppler factor
Unknown
Orbital elements
Apogee altitude
445.674 km
Perigee altitude
444.297 km
Semi-major axis
6,823.122 km
Eccentricity
0.0001
Inclination
53.0543°
RAAN
121.9232°
Arg. of periapsis
104.4257°
True anomaly
255.6747°
Mean anomaly
255.6859°
Eccentric anomaly
255.6803°
Mean motion
3.85095 °/min
Orbital period
93.48 mins
BSTAR
0.00086261
Loading maneuver chart data...
Computing Atmospheric mass density...
Loading historical data...
Loading historical data...
Loading historical data...
Loading historical data...
Loading historical data...
Loading historical data...
Loading historical data...

Documentation

Showing up to 5 results
|